Location: ?????
(54.9266°N, 38.5527°E)
Time: 19:28:13
(UTC+00:00)

deb REX - Pass Details

Date: 19 September 2024
Orbit: 705 x 731 km, 89.8° (Epoch: 09 October)

Event Time Altitude Azimuth Distance (km) Brightness Sun altitude
Rises 02:02:49 0° 8° (N) 3,132 ? -9.8°
Reaches altitude 10° 02:05:37 10° 24° (NNE) 2,202 ? -9.4°
Maximum altitude 02:09:24 22° 75° (ENE) 1,530 ? -8.9°
Drops below altitude 10° 02:13:08 10° 126° (SE) 2,180 ? -8.3°
Sets 02:15:53 0° 141° (SE) 3,092 ? -8.0°
